Wind_Speed
10 10 12 12 13 14 15 17 17 15 12 12 13 13 11 9 11 12 14 19 20 14 13 18 19 12 13 12 12 12 11 11 12 14 13 10 9 9 10 10 9 10 9 10 12 12 12 10 10 9 8 6 5 4 2 3 2 2 2 2 2 1 1 1 2 2 3 4 5 7 7 8 8 6 6 6 7 8 7 7 8 8 8 9 7 7
11 11 13 15 16 16 17 17 18 17 12 10 11 12 11 9 12 12 11 17 20 14 12 17 19 13 14 13 12 11 11 11 11 12 13 10 10 9 11 10 9 9 8 10 11 11 11 10 10 9 7 6 5 4 2 2 3 2 2 2 2 1 1 1 2 3 4 5 5 6 7 7 7 6 5 6 6 6 6 6 7 8 7 7 7 8
11 12 15 17 16 16 16 16 17 16 11 10 9 10 10 9 11 10 11 14 16 12 11 16 17 11 12 11 12 13 12 10 9 11 14 13 11 9 11 10 9 10 8 9 9 10 10 10 10 9 7 6 5 5 4 3 4 3 3 2 1 0 1 2 2 3 4 4 4 6 7 7 7 6 6 6 6 6 6 7 8 8 8 8 9 10
10 12 16 17 16 17 16 16 18 14 10 10 9 9 9 11 13 10 12 14 15 11 11 16 14 9 10 9 10 11 9 9 8 8 10 13 12 10 11 10 9 10 8 8 7 9 10 9 9 9 8 7 5 5 5 4 4 3 3 2 0 1 2 2 2 2 4 4 4 6 7 7 8 8 8 8 8 8 8 9 10 11 12 12 12 13
11 12 16 18 17 18 16 17 18 12 8 11 12 10 9 12 14 10 12 12 13 13 14 13 13 9 11 12 10 8 6 8 9 8 8 11 13 11 11 11 11 10 8 8 7 7 9 8 9 9 8 8 7 6 5 5 4 2 2 2 1 1 1 1 2 2 3 4 4 5 6 7 8 9 10 10 10 9 9 10 11 12 14 14 14 13
12 12 16 18 18 19 17 16 17 13 9 11 13 13 12 13 13 11 16 13 9 12 15 12 12 10 11 14 12 10 9 10 10 11 10 11 12 11 10 10 12 11 8 8 8 7 8 9 9 9 8 8 8 7 5 5 3 2 2 1 1 1 1 2 2 3 3 4 5 6 6 7 8 9 9 9 10 10 10 10 10 11 12 14 15 15
11 13 15 18 18 20 19 14 16 16 10 9 12 16 16 13 13 13 17 14 8 11 14 12 11 8 10 14 15 14 13 13 11 10 11 12 12 11 10 10 11 11 9 8 9 9 8 8 9 10 9 9 9 7 5 4 3 2 2 1 1 1 2 2 3 3 4 5 5 6 7 9 10 10 10 9 9 10 10 11 10 11 11 13 14 16
12 15 15 18 19 17 15 12 16 18 12 7 12 17 16 13 14 14 14 12 8 9 13 15 14 9 8 12 15 16 14 14 12 9 10 10 10 10 10 10 10 10 9 9 9 10 10 10 10 10 10 9 8 6 5 5 4 3 3 3 3 2 2 3 3 3 4 5 6 7 9 10 11 12 12 12 11 11 11 12 11 12 12 12 14 15
13 17 16 17 15 12 13 13 15 18 14 9 12 16 13 11 13 15 13 10 10 10 11 16 16 10 7 10 13 16 15 14 14 12 11 11 11 11 11 11 11 10 10 10 10 10 10 10 10 10 9 8 6 5 5 4 3 2 2 3 3 4 4 3 3 4 5 6 7 9 10 11 12 13 13 13 12 12 12 13 13 13 13 13 13 14
13 16 15 16 13 11 14 15 16 17 15 13 13 15 13 10 10 10 11 10 10 11 11 15 17 11 8 11 12 14 15 14 13 12 11 12 12 11 10 11 11 11 10 11 10 9 10 9 9 9 8 7 6 5 5 5 4 3 2 2 3 4 5 5 5 5 6 6 7 9 11 11 12 13 13 14 13 13 13 14 14 14 14 14 14 15
12 11 11 13 13 12 14 16 17 17 18 17 11 12 13 12 9 8 9 9 9 11 12 15 18 14 8 8 11 12 13 14 12 11 11 12 12 10 9 9 10 10 9 9 9 9 10 10 9 9 9 9 7 6 6 5 4 3 2 2 3 3 4 5 6 6 7 8 8 10 11 12 13 14 14 15 15 14 14 14 15 15 15 14 15 15
14 12 10 12 14 14 15 15 16 17 20 17 9 10 12 10 9 8 7 9 9 10 13 15 18 18 10 7 10 11 14 17 13 12 14 14 13 10 9 9 9 10 9 9 8 9 10 10 10 10 10 10 9 8 7 6 5 4 3 3 3 3 4 5 6 7 7 8 9 10 11 12 14 15 15 17 18 17 16 16 16 17 16 15 14 14
14 13 13 13 15 17 14 13 13 15 18 16 11 11 12 9 9 9 9 9 9 9 12 16 18 16 8 4 11 11 12 15 13 12 14 15 14 12 11 10 10 10 10 9 9 9 8 8 9 9 9 9 9 9 8 7 6 5 5 4 4 4 5 6 6 7 7 8 9 10 11 12 14 15 16 18 19 19 18 18 17 17 17 16 15 14
11 12 15 15 14 16 16 13 12 12 14 15 13 12 11 10 9 10 10 9 9 9 12 17 17 11 3 5 13 15 13 13 12 11 13 14 15 13 13 12 11 11 10 9 9 8 7 8 9 9 9 9 9 8 8 7 7 6 6 6 6 5 6 7 7 8 8 8 9 10 11 12 13 15 16 18 19 19 19 19 19 18 18 18 17 15
13 11 14 15 12 14 19 16 12 12 14 14 13 12 11 10 8 9 9 9 10 9 10 15 13 7 7 8 11 14 14 14 12 11 13 14 14 13 12 12 12 11 10 9 9 9 9 10 10 9 9 9 8 9 8 8 8 7 7 7 7 7 7 8 8 9 9 10 10 10 11 12 13 15 16 17 19 19 20 20 20 19 20 20 17 15
14 11 14 17 13 15 18 16 14 14 13 12 12 12 11 11 9 8 8 6 8 9 9 9 3 4 7 8 9 12 14 15 14 13 13 14 14 12 11 11 10 10 10 10 9 9 10 10 10 10 10 9 9 9 9 9 8 8 8 8 8 8 8 9 9 10 10 11 11 11 12 12 13 14 15 17 18 19 20 21 21 20 21 21 19 16
12 10 15 18 16 18 17 15 16 15 11 10 12 12 11 13 11 9 7 5 5 9 9 7 5 6 6 6 8 12 14 15 15 14 13 13 13 12 11 10 10 10 10 9 9 8 9 10 10 10 10 9 9 9 9 8 8 8 8 8 9 9 9 10 10 10 11 11 12 13 13 13 13 14 16 18 19 21 22 21 19 19 20 20 20 17
10 9 14 20 18 18 18 17 18 16 12 10 11 12 11 12 12 8 8 6 7 9 9 10 9 9 8 6 8 13 14 15 15 14 13 13 13 12 11 10 10 11 10 9 9 8 9 10 9 9 9 9 9 8 8 8 8 8 9 9 10 10 11 11 12 11 11 12 12 13 13 14 15 15 16 18 19 20 21 20 17 18 21 21 18 17
11 8 12 20 18 16 17 17 16 17 19 14 10 11 10 11 12 9 7 9 10 9 8 11 11 8 8 7 11 15 16 16 15 14 13 13 13 12 11 11 11 10 9 8 8 7 8 9 9 9 9 9 9 8 8 8 9 9 9 9 10 10 11 12 12 12 12 12 12 12 14 16 18 18 17 19 19 19 19 18 17 18 20 20 17 17
10 7 8 16 19 16 14 13 13 15 18 16 12 13 11 10 10 9 8 8 9 9 8 10 12 9 8 11 16 18 18 18 16 14 13 13 13 12 10 10 10 9 8 7 7 7 7 8 9 9 9 9 8 9 8 8 8 9 9 9 10 10 11 12 13 13 13 13 13 14 15 17 18 19 19 19 20 18 17 17 17 17 18 18 17 16
8 7 6 12 17 15 11 12 14 14 15 13 12 14 12 9 9 9 9 8 9 10 8 9 10 5 3 9 17 18 18 18 16 14 13 13 13 12 11 10 9 8 8 7 7 7 7 8 9 9 8 8 7 8 8 8 8 9 9 10 10 11 12 13 13 13 13 14 14 15 16 17 18 19 18 18 19 18 17 18 18 17 16 16 16 14
7 7 7 9 12 14 12 15 17 17 16 13 10 11 12 11 10 10 10 9 9 9 8 8 7 3 3 3 12 16 16 17 16 15 14 14 14 13 11 10 9 8 8 7 7 7 7 8 8 8 7 7 8 8 8 8 8 9 11 10 10 11 12 13 14 14 14 14 14 15 16 17 17 18 17 18 18 18 18 19 19 18 16 15 14 13
6 6 8 9 11 14 15 17 18 19 19 16 12 12 12 12 11 10 10 10 9 9 9 9 6 3 2 2 10 13 14 16 16 15 14 14 13 13 12 10 9 9 8 8 7 7 8 8 8 7 7 8 8 9 9 9 9 10 11 11 11 11 13 13 13 14 14 14 15 15 15 15 16 16 17 16 16 17 18 18 17 16 14 15 16 14
6 6 9 10 9 12 15 17 18 19 18 15 13 14 14 13 13 12 10 9 8 9 10 8 6 4 1 4 10 13 16 16 14 14 15 13 11 12 12 10 9 9 8 8 7 8 8 8 8 8 8 9 9 9 9 10 10 11 12 12 11 12 13 13 13 14 14 14 15 14 14 14 15 16 16 16 15 15 17 17 17 15 13 14 18 15
7 8 10 9 8 10 12 14 15 17 15 11 12 16 16 17 19 15 10 8 8 10 12 7 4 4 4 7 13 16 18 16 14 14 15 13 11 11 10 10 9 9 8 8 8 8 8 9 9 9 9 9 9 9 10 10 11 11 12 12 12 12 12 12 14 14 14 15 15 14 14 14 14 15 16 16 15 15 17 17 16 16 14 14 17 15
7 8 10 9 10 12 12 12 12 12 11 10 14 19 20 21 21 16 10 8 7 10 12 7 5 7 7 10 15 17 18 17 16 15 14 13 12 11 10 10 9 9 8 9 9 8 8 9 10 10 10 10 10 10 10 11 12 11 12 12 12 12 13 13 14 15 14 14 15 15 16 15 15 16 16 15 15 15 16 16 16 16 15 13 13 12
6 9 9 7 7 8 8 11 13 13 12 14 18 21 22 22 21 16 10 8 9 9 10 9 14 15 12 14 16 16 17 18 17 15 14 13 12 11 11 10 10 9 8 9 8 8 9 9 10 10 11 11 11 11 11 12 12 12 12 12 12 12 13 14 15 15 15 15 15 16 17 16 16 17 16 15 15 16 15 15 15 14 13 11 9 8
6 9 5 2 4 3 4 7 15 19 17 17 19 21 22 22 21 18 12 10 10 8 7 12 21 20 18 18 19 18 17 17 16 15 14 13 12 11 11 11 11 10 9 9 9 9 9 9 10 11 11 11 12 11 11 12 12 12 12 12 13 13 14 14 15 15 15 16 16 17 17 17 16 17 18 16 16 17 17 15 15 13 12 11 9 8
7 6 4 4 6 3 4 7 11 18 18 18 19 19 20 22 21 18 15 13 12 7 5 13 19 19 18 18 18 17 17 17 16 15 14 13 13 12 12 12 12 11 10 10 9 10 10 9 10 11 11 12 12 12 11 12 12 13 13 13 13 14 14 15 15 16 16 16 17 17 17 17 17 18 19 18 18 19 19 18 18 15 13 12 11 9
8 4 4 6 5 3 4 4 6 13 17 18 18 15 15 18 17 16 12 7 6 6 11 14 13 14 15 16 16 15 16 16 15 14 14 14 14 13 13 12 11 11 10 10 10 10 10 10 12 12 12 12 12 12 12 12 12 12 13 14 14 15 15 15 16 16 17 17 18 18 17 17 18 18 19 19 19 19 19 18 17 16 14 14 12 11
7 4 5 6 6 3 4 4 7 12 12 12 12 12 14 14 11 11 8 6 6 10 15 17 17 12 9 14 16 15 16 16 15 15 14 14 14 14 13 12 12 11 11 11 11 10 10 10 11 11 12 12 12 12 12 11 12 12 13 14 14 15 15 15 16 17 17 18 18 18 18 17 18 19 19 19 19 19 19 18 17 17 16 14 13 12
8 6 5 7 7 4 4 9 11 9 7 9 8 5 9 11 6 4 5 6 7 13 15 15 15 9 7 14 16 15 17 17 16 16 14 12 13 13 13 12 12 12 12 11 11 10 10 10 9 10 11 11 11 12 11 11 12 12 13 13 13 14 15 16 17 17 17 18 18 18 18 18 18 19 19 19 19 18 19 19 19 19 18 17 15 13
9 8 6 6 5 4 8 10 10 8 7 8 7 5 1 7 8 8 10 10 7 11 10 7 10 11 12 16 16 16 18 18 16 14 13 13 13 12 12 12 12 12 12 11 11 10 10 9 9 9 10 10 11 11 11 11 13 13 12 12 13 14 15 15 16 17 17 18 18 18 18 18 18 18 19 18 18 18 18 19 19 20 20 20 19 18
10 9 6 4 3 4 9 9 9 9 8 4 2 2 3 5 8 10 11 12 11 9 7 8 13 16 14 15 17 18 17 15 14 12 11 12 12 12 13 12 12 12 11 11 11 10 10 9 9 9 9 10 10 10 11 11 12 13 12 13 14 15 14 14 16 17 17 18 19 19 18 18 18 18 18 18 17 18 18 19 20 20 20 20 20 20
9 7 5 5 4 4 7 9 8 8 5 2 2 2 3 5 10 14 14 13 13 12 15 17 18 17 15 15 16 17 16 15 13 12 11 10 10 11 13 12 12 11 10 10 10 9 9 9 9 10 10 9 9 9 10 11 11 12 12 13 14 13 13 15 17 17 17 18 19 19 19 18 18 17 17 17 18 18 19 19 20 20 20 19 19 19
8 7 5 6 6 6 7 8 6 4 4 4 4 5 5 7 10 13 12 11 11 11 15 18 17 16 17 17 16 16 17 16 13 10 9 9 9 11 11 11 10 10 9 9 8 9 9 10 10 10 9 9 9 10 10 11 11 11 12 14 14 12 14 17 18 17 18 18 19 19 19 18 17 17 17 17 18 19 19 19 19 19 19 19 20 20
10 9 9 7 6 7 7 5 3 3 4 5 5 5 5 4 4 5 7 6 7 9 13 15 17 17 17 17 17 17 17 15 11 8 7 8 10 11 11 11 10 11 11 11 9 10 10 10 10 9 9 9 10 10 10 10 10 11 13 14 14 14 16 18 18 18 18 18 18 19 19 19 18 17 17 18 19 19 19 19 19 18 18 19 21 22
5 6 8 7 5 6 7 5 4 5 5 5 6 5 3 2 1 4 8 6 5 8 12 14 16 17 17 16 17 17 13 10 8 6 6 8 9 11 12 12 12 12 13 11 10 11 10 10 10 10 9 10 11 11 10 10 10 12 13 14 14 15 17 18 18 18 18 17 18 18 19 19 20 19 19 18 18 19 18 18 19 18 17 18 19 20
4 4 4 6 7 7 7 7 6 4 1 3 6 6 4 1 1 2 4 5 6 9 12 15 16 16 15 15 15 13 8 6 6 6 7 9 10 11 11 11 12 13 12 12 11 11 11 10 11 11 11 11 12 12 12 11 11 13 14 14 15 16 17 17 17 17 17 17 17 17 18 19 20 20 20 20 19 19 18 19 20 19 18 17 16 17
4 0 4 6 8 8 8 5 3 3 3 4 7 7 5 2 1 4 4 5 9 11 12 15 16 15 14 14 12 6 2 4 8 9 10 11 12 12 11 12 13 13 13 13 12 11 11 11 12 12 12 12 12 12 12 12 13 14 14 14 15 16 16 16 17 17 17 17 17 18 19 19 19 20 20 19 19 20 20 22 24 25 24 21 19 18
5 6 5 6 7 8 8 5 3 3 4 5 5 5 4 3 3 4 3 6 10 12 13 14 16 15 13 11 7 2 4 7 12 13 13 13 12 12 13 13 13 13 13 13 11 10 11 12 12 12 12 12 11 11 11 12 13 14 15 14 15 16 15 16 16 17 17 17 18 19 20 20 20 20 20 20 19 20 22 23 25 25 22 20 19 19
5 6 6 6 5 6 7 6 4 3 2 2 4 4 1 2 3 3 5 8 11 13 13 15 15 14 12 9 8 8 10 14 16 15 14 13 12 12 13 13 13 14 13 12 10 10 11 12 13 13 13 13 12 12 12 13 14 14 15 15 15 15 14 15 16 17 17 18 18 19 19 19 19 19 19 20 20 21 22 24 26 26 22 19 19 20
1 2 5 4 1 4 7 6 4 3 2 2 5 4 2 2 4 7 8 10 12 13 14 14 13 12 12 12 13 14 15 17 17 15 14 13 12 13 14 14 14 14 13 12 10 10 11 12 13 13 13 13 13 13 13 14 15 15 15 15 15 14 14 14 15 15 16 17 17 18 19 19 19 19 19 19 20 20 21 22 25 27 26 23 20 20
5 4 2 3 4 2 4 4 3 5 5 1 1 3 5 5 7 9 9 10 11 12 12 11 11 12 13 15 16 16 16 16 16 15 14 13 12 14 15 14 14 13 13 12 12 11 11 12 12 13 13 12 12 13 14 15 15 15 15 15 14 13 14 14 13 14 14 15 15 16 17 17 18 19 19 19 20 20 20 20 20 21 23 22 20 19
6 4 3 6 6 5 5 5 5 7 7 5 5 7 9 9 9 10 11 11 10 10 10 10 12 13 14 16 17 16 15 16 16 16 14 12 12 14 15 14 14 13 12 12 11 11 11 12 12 12 12 12 13 13 14 15 15 15 15 14 13 13 14 14 14 14 14 14 15 15 15 16 16 16 17 17 18 19 20 20 20 19 19 19 18 17
5 2 2 5 7 9 10 8 7 8 9 8 8 8 9 10 10 10 11 10 10 10 11 11 14 15 14 15 15 14 14 15 17 16 14 12 12 14 15 15 14 13 13 12 11 11 11 12 12 12 13 13 13 13 14 13 14 14 14 13 13 14 14 14 15 15 15 15 15 15 16 16 16 17 17 16 16 17 18 19 20 20 19 18 17 17
3 1 2 6 7 5 6 7 8 9 10 9 8 8 10 11 11 10 10 10 11 12 13 13 15 16 15 14 15 15 15 15 15 15 14 12 12 14 15 15 14 13 12 11 12 12 12 12 12 12 13 13 13 13 13 13 13 13 13 12 12 13 13 13 14 14 14 14 14 15 15 16 16 17 19 19 18 17 17 19 20 21 21 20 19 17
2 1 3 7 5 3 7 9 8 9 10 8 8 8 9 11 11 11 12 12 13 14 15 16 16 15 13 14 16 17 17 15 15 14 13 12 13 14 15 15 14 12 11 11 10 12 12 12 12 12 13 13 13 13 12 13 13 13 13 13 12 12 13 13 13 13 13 13 13 13 14 14 14 15 17 19 21 20 18 18 19 21 23 23 21 19
2 3 4 8 8 7 8 10 9 9 9 8 7 9 9 11 13 14 15 16 16 16 16 16 15 14 15 16 16 16 17 16 16 16 14 13 14 15 15 15 15 13 13 13 12 12 12 12 12 12 12 12 12 12 12 12 12 12 12 12 11 12 12 12 12 12 12 12 12 12 12 12 12 12 13 15 19 22 22 20 19 19 22 26 26 24
1 4 5 6 6 5 7 12 11 8 7 7 8 9 10 12 15 16 16 17 16 16 16 17 17 17 18 18 18 17 16 15 17 18 16 14 15 16 16 15 14 13 12 13 12 13 13 12 12 12 13 12 12 12 12 12 11 11 11 10 10 10 10 11 11 12 12 12 11 11 11 11 11 12 11 11 12 17 20 22 21 20 21 23 25 26
3 2 3 3 3 6 12 15 9 6 9 10 10 10 11 12 14 16 17 16 16 16 16 17 17 18 17 18 20 19 16 17 19 19 17 16 17 17 16 15 14 13 12 12 13 13 13 12 12 13 12 12 11 11 11 11 11 11 11 10 10 10 10 9 10 11 11 12 11 11 11 11 11 12 12 11 10 10 12 14 16 18 19 20 20 22
Wind_Direction
192 202 206 211 211 206 209 212 221 227 223 215 202 213 219 196 210 202 177 179 181 195 192 197 214 178 152 178 171 175 184 192 191 151 138 163 167 160 143 125 119 117 113 120 124 123 125 127 125 125 127 123 121 121 134 137 136 136 137 139 115 58 327 327 323 301 264 264 274 274 270 265 258 256 267 265 262 259 250 251 259 261 262 259 248 245
197 213 209 210 214 209 210 213 221 230 238 237 211 206 215 200 208 200 164 168 179 200 197 192 213 189 160 175 169 172 179 191 194 154 146 170 181 165 139 134 128 118 121 124 122 122 123 127 127 126 125 124 123 123 133 135 131 130 129 126 110 85 308 287 277 268 251 256 267 269 280 288 278 265 267 271 263 256 251 253 258 257 258 259 248 241
202 218 213 208 213 213 211 212 221 229 234 242 221 206 213 200 202 181 146 171 185 202 196 188 210 194 154 164 166 176 184 176 180 172 166 171 182 166 138 138 131 126 133 127 126 127 122 124 126 126 125 123 121 124 132 130 128 128 122 118 98 122 259 242 238 261 266 271 273 273 288 301 294 281 277 275 261 254 249 246 251 248 239 240 240 239
202 212 212 208 211 212 208 208 217 223 222 229 221 210 209 196 204 182 151 180 191 203 203 183 197 190 147 157 167 171 172 153 154 168 162 163 180 172 148 150 142 133 130 125 132 127 125 130 129 128 127 125 125 125 125 122 124 124 119 124 110 198 242 249 241 269 283 281 277 277 280 283 285 283 282 277 260 247 241 241 242 236 230 229 235 239
210 204 206 207 208 210 207 205 210 213 208 223 226 220 212 201 208 181 151 180 189 207 226 198 190 190 165 173 175 159 153 154 159 162 157 165 178 166 152 159 148 136 133 135 140 130 129 130 122 123 127 128 124 110 102 101 114 121 117 130 164 211 251 275 256 257 276 277 270 271 270 266 264 262 264 265 257 245 239 242 244 243 239 234 236 238
217 201 198 204 204 206 210 205 204 205 201 215 226 232 229 209 202 173 162 182 186 200 226 220 203 193 180 186 180 166 173 176 170 170 171 169 166 154 146 147 137 134 142 140 135 131 130 126 120 118 117 119 109 93 89 90 93 93 89 119 173 222 232 253 257 253 263 268 268 271 271 266 260 254 253 256 256 252 246 244 244 246 243 238 240 236
220 203 193 204 204 203 212 207 197 204 212 212 211 224 235 218 200 184 174 184 194 198 202 207 212 196 188 196 183 172 177 174 169 168 172 175 172 162 146 137 132 133 137 130 122 121 115 109 111 107 99 101 95 86 90 86 74 52 36 1 305 260 237 239 243 241 252 266 272 272 272 272 273 272 270 267 266 264 259 254 248 244 240 240 243 237
215 208 193 201 205 200 208 206 193 201 218 217 189 205 235 233 204 188 180 190 201 199 190 195 218 223 199 193 177 173 176 168 165 162 159 163 155 138 126 123 123 124 125 120 111 104 92 82 85 88 89 92 89 82 79 73 59 35 11 343 325 300 277 257 243 238 249 262 265 264 264 266 272 276 278 278 272 266 263 261 254 247 242 240 241 239
202 212 195 192 203 200 204 206 195 198 216 223 186 190 223 241 213 189 184 203 203 198 195 194 212 232 211 188 175 178 182 170 163 157 147 136 116 103 106 107 103 102 103 99 94 90 83 76 74 79 83 86 85 80 69 67 59 29 356 335 323 307 302 296 283 275 268 265 262 264 267 268 272 274 278 280 273 267 263 260 254 249 245 240 238 238
197 214 198 188 204 208 203 208 201 196 214 227 194 183 204 224 221 198 192 206 206 211 209 190 198 223 215 182 176 184 185 173 162 152 144 135 121 108 108 108 105 102 96 92 89 86 82 76 73 77 82 84 84 78 68 65 59 43 12 328 318 314 313 311 310 306 298 291 279 276 278 278 279 278 278 279 275 270 265 261 256 250 247 241 238 237
198 195 197 198 212 215 203 206 204 195 213 228 200 180 200 210 213 212 211 213 212 218 213 196 200 217 218 172 177 197 185 167 156 148 143 134 126 120 115 112 110 105 98 95 95 91 86 82 79 77 77 78 75 71 67 61 54 46 27 345 328 329 325 316 312 310 306 302 293 288 288 286 285 282 280 279 276 272 266 262 260 254 249 243 239 238
202 179 198 211 215 218 206 203 201 196 211 223 203 189 199 196 202 212 218 221 225 220 208 206 206 209 222 202 187 192 172 159 152 149 146 136 130 128 119 112 108 104 101 101 99 91 85 79 77 75 71 69 64 61 58 50 44 36 22 0 349 348 340 326 317 312 306 298 290 287 286 283 281 280 278 276 275 273 267 263 262 259 252 244 239 239
211 193 198 205 210 215 209 201 195 194 209 214 197 198 200 186 194 202 202 210 226 224 205 209 212 206 224 206 158 145 139 144 142 143 144 136 131 126 117 111 105 102 100 97 94 88 83 78 76 74 71 67 61 56 51 45 40 34 30 17 6 5 355 342 328 319 310 298 291 286 283 278 275 275 275 274 274 272 269 265 262 260 254 247 242 240
210 203 198 200 203 207 210 205 191 187 204 208 197 198 202 192 190 197 200 200 214 223 209 210 213 195 140 98 123 122 112 114 120 132 136 130 126 121 114 108 99 96 94 90 89 84 81 79 74 71 68 64 57 52 46 43 37 32 33 23 11 9 358 347 336 325 315 304 297 291 287 283 278 278 277 276 276 274 272 269 265 261 256 252 249 243
202 201 198 202 193 193 211 213 195 191 199 202 203 207 211 207 195 193 200 199 200 211 210 210 211 179 138 107 105 115 109 99 100 114 120 116 117 113 108 104 98 95 92 87 86 83 80 77 72 68 65 60 54 49 43 39 33 26 23 15 6 2 352 343 335 325 317 310 304 297 294 292 288 287 285 284 282 278 274 270 268 266 263 262 260 251
206 205 193 199 193 189 209 213 194 196 199 195 207 217 217 213 201 193 213 225 206 201 203 204 192 87 118 114 111 122 118 113 112 116 120 116 117 114 105 102 99 96 94 89 86 84 81 77 72 66 61 56 49 44 40 33 27 20 15 7 360 354 345 340 333 324 318 312 307 302 298 296 294 292 289 286 284 281 277 273 271 271 270 269 268 264
203 208 184 187 196 194 201 208 199 200 199 190 207 218 217 219 214 198 212 248 227 208 200 182 118 96 127 130 138 142 130 127 128 127 129 123 117 112 103 104 104 99 98 92 89 85 80 76 70 63 57 51 44 38 33 27 20 14 9 360 351 346 339 335 329 323 319 313 309 306 301 300 299 296 292 288 286 285 282 278 276 275 272 266 264 267
200 208 179 178 194 194 191 206 211 208 206 198 203 212 214 221 223 212 204 207 212 214 204 186 156 145 165 162 157 158 145 138 136 132 132 125 116 110 106 109 107 103 101 96 93 86 77 72 66 60 54 47 41 33 25 19 14 9 3 354 347 341 335 333 329 324 320 316 314 310 307 306 302 296 293 292 293 291 289 285 282 279 274 265 261 262
207 209 178 179 191 188 183 202 212 206 212 217 206 204 216 220 212 210 214 207 204 209 205 190 170 166 191 175 165 171 159 144 141 138 137 128 118 114 113 113 109 106 105 97 92 83 73 69 60 55 49 42 35 28 21 16 12 7 1 354 348 342 337 334 332 327 323 320 318 314 311 309 304 300 298 299 300 299 296 293 290 285 279 271 267 261
215 218 182 181 188 185 180 198 208 197 205 221 215 202 217 230 212 206 216 212 206 206 201 196 188 193 205 177 170 174 160 148 148 145 140 129 122 120 119 117 111 105 101 92 88 82 73 67 58 51 44 37 29 23 18 15 12 8 2 355 350 347 343 340 337 334 331 327 323 318 315 312 308 306 306 308 312 313 309 303 297 292 283 273 266 257
210 221 193 182 185 189 187 196 206 196 192 210 216 202 205 217 213 213 216 211 215 211 197 202 200 186 171 165 167 166 155 149 151 145 136 127 122 121 116 113 108 103 99 91 86 81 73 66 60 54 46 38 30 26 21 17 15 10 5 358 353 351 348 345 343 339 337 333 326 321 318 316 314 312 312 315 321 325 323 318 311 305 293 277 262 248
205 213 194 187 191 198 197 194 201 204 197 200 211 209 206 207 206 212 213 209 219 218 206 207 195 129 33 163 160 156 152 149 147 140 130 123 120 116 111 109 107 105 101 94 87 81 77 73 67 59 50 42 35 30 25 24 21 15 9 2 357 355 352 350 347 343 340 335 329 323 319 318 319 318 319 319 323 330 330 326 323 318 309 292 272 250
201 214 195 197 206 204 196 191 200 210 205 199 207 216 209 204 209 213 208 205 215 219 216 213 186 120 6 170 148 147 146 142 140 133 124 119 117 112 111 111 109 106 102 98 93 86 81 76 68 57 46 43 40 34 30 29 25 19 13 6 2 359 355 352 349 345 342 337 333 329 323 323 325 325 326 324 327 335 334 330 326 320 315 307 290 266
185 222 206 199 208 207 198 193 201 211 209 202 207 218 216 206 210 221 219 207 212 221 221 211 173 146 148 125 124 128 128 128 132 130 123 120 118 117 119 118 114 110 106 104 98 89 82 73 64 56 46 43 42 37 34 30 25 20 16 11 7 3 358 355 351 348 345 341 338 336 333 332 331 332 335 333 334 339 336 331 325 318 321 316 301 285
179 214 211 197 196 202 199 195 197 204 212 209 202 211 221 212 205 219 231 215 218 229 224 210 156 146 152 131 125 125 126 128 132 129 123 122 124 126 125 121 117 115 110 104 94 81 75 68 62 56 49 45 43 40 37 31 26 21 18 14 10 6 2 358 355 352 351 349 347 345 344 341 338 341 344 341 341 341 336 335 333 331 337 329 310 303
185 210 213 204 200 197 193 195 195 194 204 214 205 203 214 217 209 209 218 211 215 230 223 202 137 129 140 146 142 134 133 135 133 128 124 126 130 128 124 122 118 114 107 99 90 79 74 70 65 60 54 50 48 46 41 34 30 25 20 17 13 10 8 4 2 1 359 358 356 355 353 350 346 348 350 348 344 341 337 338 342 344 347 339 320 315
195 211 212 215 225 216 203 204 200 193 197 209 209 201 204 215 212 205 215 213 201 224 229 179 139 138 152 161 154 143 140 140 134 130 128 129 131 128 123 121 115 110 105 98 92 85 79 73 68 63 59 56 53 50 46 40 35 30 25 21 18 16 13 10 9 8 8 7 5 3 2 358 354 353 357 357 350 347 346 345 348 351 349 344 336 336
209 206 188 214 252 262 285 244 210 198 198 205 211 206 202 206 206 205 215 207 193 219 224 154 140 146 162 163 151 144 143 140 135 133 132 132 132 127 124 122 116 112 106 101 95 87 80 77 72 67 62 59 56 52 48 45 40 35 31 27 23 21 20 18 15 13 13 14 11 9 7 5 2 0 3 4 359 358 359 358 1 4 357 349 350 359
223 201 156 210 229 229 292 278 225 203 198 201 210 213 206 202 203 207 210 209 213 220 169 150 148 150 155 149 139 140 141 136 133 133 133 134 133 129 128 125 119 115 110 106 99 89 82 81 76 68 62 59 57 53 49 46 43 40 36 33 29 26 24 21 20 18 18 17 14 10 10 10 10 8 8 10 10 9 9 8 10 15 11 4 6 14
222 189 146 197 211 210 241 277 250 219 205 202 209 214 211 206 206 207 200 201 215 162 137 143 138 130 138 137 132 136 135 128 127 130 133 136 136 134 131 125 120 118 113 107 101 92 86 84 78 68 61 59 56 54 52 46 43 42 39 36 33 30 27 23 22 21 19 19 16 12 13 14 14 14 13 14 14 13 14 13 12 14 16 15 15 18
212 183 146 187 188 180 211 219 229 223 204 191 197 205 209 209 210 203 174 104 85 118 128 129 120 111 126 131 129 132 130 126 130 134 137 138 136 135 132 126 124 120 112 108 104 97 92 86 74 63 61 60 56 56 53 46 44 44 41 39 36 32 30 27 24 23 21 19 17 15 16 17 17 17 17 17 18 17 18 18 17 16 19 23 26 29
203 185 154 199 192 159 216 208 194 195 177 147 139 166 197 189 173 144 114 81 104 133 133 128 128 129 129 123 124 131 131 130 135 137 137 138 138 137 133 129 127 120 114 112 105 98 97 88 66 56 59 59 56 55 51 47 46 43 39 38 36 33 33 30 27 25 24 21 19 19 20 19 19 21 20 19 20 21 22 24 24 23 24 29 37 44
204 190 164 199 186 167 219 202 161 160 177 148 106 36 47 147 129 96 73 55 87 141 150 140 135 137 133 128 129 134 134 133 135 137 138 139 139 136 131 127 124 119 116 112 104 97 93 82 63 53 52 52 52 50 47 45 46 43 37 36 36 33 33 33 30 28 25 23 22 22 22 23 24 24 23 23 23 25 28 29 29 29 30 35 45 54
202 200 186 185 171 201 210 179 148 171 182 151 105 353 30 98 115 107 89 65 66 99 107 100 119 131 134 134 133 132 131 130 131 135 136 137 138 134 128 125 122 120 116 111 105 95 81 71 62 52 44 42 45 47 45 43 44 43 39 38 39 35 31 33 34 31 27 25 25 25 24 26 27 27 26 27 29 30 32 32 31 31 32 37 45 50
186 181 197 197 176 203 195 166 167 190 173 126 185 171 92 94 100 95 89 80 79 91 100 107 121 131 129 127 126 123 121 118 119 121 119 119 125 128 127 126 123 118 113 108 101 88 74 65 59 50 41 35 36 40 41 39 43 45 43 43 44 39 34 36 36 32 29 27 27 26 26 27 28 29 29 30 33 35 35 34 32 31 32 37 43 44
169 157 208 215 174 175 190 176 171 168 127 120 140 138 134 138 119 93 76 74 83 99 113 119 124 124 122 123 121 118 118 115 107 104 106 110 118 125 127 126 119 109 103 98 90 79 68 59 54 49 40 35 35 34 32 34 41 46 47 47 46 41 41 41 37 33 31 30 29 27 28 29 30 32 33 34 36 37 36 35 32 31 34 39 45 47
182 181 199 200 178 181 182 158 122 134 144 140 149 156 143 140 136 104 89 84 84 101 118 124 124 124 125 125 124 124 122 113 97 85 92 103 111 118 119 113 106 101 97 92 85 78 68 58 55 51 44 42 39 31 26 33 44 49 48 48 46 43 44 43 38 36 34 32 31 31 31 33 34 37 37 37 39 39 38 37 35 34 36 41 45 48
189 211 204 188 197 202 176 155 151 164 166 153 153 155 118 58 22 98 106 108 105 117 131 135 132 132 132 130 134 139 133 112 97 98 111 113 114 117 115 107 101 100 98 94 89 82 72 63 60 57 53 52 45 37 34 38 48 53 50 48 47 45 44 42 40 39 37 35 35 34 35 37 40 43 43 41 42 42 40 40 39 38 40 43 44 47
62 354 265 197 193 200 187 183 178 155 109 118 139 145 145 162 235 127 129 138 138 140 146 144 140 139 139 141 148 157 155 129 123 137 141 134 127 122 115 108 103 99 95 92 89 84 78 74 71 65 60 55 50 48 48 48 53 57 54 51 50 48 45 43 42 42 42 41 40 37 37 40 43 46 48 48 48 48 48 49 48 46 46 47 45 47
110 95 263 221 194 191 189 182 143 72 51 101 132 142 137 120 256 233 201 158 147 151 151 146 144 143 145 150 154 167 190 152 146 150 146 138 131 123 117 113 110 106 100 93 88 86 84 81 76 70 63 58 57 57 57 58 60 60 57 55 55 53 49 47 47 49 50 49 48 46 45 45 46 47 48 49 49 52 56 60 62 59 54 52 50 49
175 183 208 210 192 183 176 154 104 87 89 103 124 133 130 154 221 219 163 133 143 148 143 142 143 141 144 152 152 103 54 103 129 140 140 136 132 124 118 114 110 107 102 96 92 91 89 83 78 74 67 63 62 62 64 65 65 62 60 59 60 57 55 54 55 56 58 58 56 53 52 51 51 51 50 49 49 51 53 57 63 62 55 51 49 48
204 190 180 187 200 194 167 132 109 108 82 95 134 118 91 221 199 128 107 125 136 137 135 139 141 138 135 129 117 106 101 109 122 132 135 136 133 125 119 115 111 106 101 97 96 97 93 87 83 78 72 67 64 64 67 68 66 64 63 61 61 61 60 61 63 64 65 64 61 58 55 53 52 53 52 50 50 52 50 52 57 59 56 51 49 46
268 224 174 141 135 206 166 140 135 138 118 218 188 147 20 332 131 119 117 123 124 125 129 132 132 131 125 114 112 117 117 120 125 128 129 130 129 124 121 117 113 110 107 103 100 97 96 92 86 80 75 71 68 67 68 68 66 65 63 61 62 64 65 66 67 68 67 64 61 60 57 55 53 53 52 51 51 51 49 47 50 53 52 50 46 43
9 323 208 94 17 283 173 131 101 104 99 54 228 120 88 89 118 129 127 122 121 125 127 125 123 124 122 120 122 122 121 124 126 125 127 128 127 125 123 118 114 112 110 107 103 100 98 93 88 84 80 74 71 69 68 68 68 66 64 63 62 64 66 66 67 67 65 61 60 60 58 56 55 55 54 53 51 50 47 42 42 43 42 42 41 39
33 25 68 70 45 39 73 91 95 93 87 71 72 96 105 107 116 125 125 125 129 131 130 126 124 123 123 124 124 124 125 128 127 126 126 125 125 126 123 118 115 112 108 106 105 105 104 97 92 89 85 79 75 72 71 70 70 69 67 65 65 65 66 65 65 65 63 59 58 58 58 57 55 53 53 52 51 50 45 40 38 36 34 33 34 36
67 55 74 99 103 87 77 92 112 99 85 84 88 97 107 111 117 122 122 124 129 131 132 130 127 127 128 127 126 127 130 131 129 128 127 124 126 127 122 118 118 116 112 108 106 105 103 101 97 92 88 84 79 76 76 74 72 72 70 68 68 67 67 67 66 65 64 63 61 59 59 59 57 53 51 49 49 49 47 43 40 37 33 30 30 32
92 353 67 118 143 131 94 104 113 102 97 101 103 106 109 112 118 122 120 120 123 126 125 124 126 130 130 128 128 128 127 128 128 127 128 128 129 128 124 120 116 112 107 106 114 118 111 105 103 96 89 85 80 77 78 76 73 73 72 70 69 68 68 69 68 66 66 64 63 62 60 59 59 56 52 48 46 46 46 46 44 41 36 31 27 26
109 204 106 97 96 95 109 118 110 90 93 106 112 113 113 113 116 118 116 116 118 120 121 123 128 131 130 130 131 130 129 132 130 128 130 129 124 121 118 112 105 95 81 75 92 114 115 107 102 96 90 86 81 77 77 75 74 74 73 71 71 70 69 69 69 71 71 67 65 64 62 61 61 60 59 55 51 49 47 47 48 47 45 41 36 32
118 159 117 93 95 99 114 134 131 103 94 103 111 113 114 116 118 118 117 117 117 120 123 125 127 128 129 131 133 131 132 134 132 130 131 129 121 115 110 105 100 94 85 76 80 97 109 107 102 97 94 91 84 80 77 75 74 75 76 76 76 75 74 72 69 69 70 68 66 65 62 61 60 61 66 68 65 62 58 56 57 58 56 52 49 46
105 132 110 119 141 140 143 158 160 136 118 125 124 118 118 121 122 121 121 122 122 124 126 126 125 126 128 132 134 133 132 133 133 131 127 121 117 113 110 109 105 99 98 99 99 102 105 104 101 99 95 90 86 82 79 75 73 72 73 74 74 74 76 76 73 69 65 62 60 59 57 57 56 56 60 71 81 82 75 67 63 62 60 56 52 48
15 58 70 76 78 105 138 155 154 113 115 133 136 127 124 125 127 127 128 128 126 127 129 128 128 129 129 131 134 134 133 134 135 133 127 122 121 119 116 116 114 111 112 113 112 110 111 111 111 107 100 94 91 86 80 77 74 73 71 69 68 68 69 72 73 71 68 63 56 52 54 55 53 53 53 54 64 83 90 85 76 67 60 56 53 49
Height
757 763 763 761 757 753 751 749 746 739 736 738 742 745 741 741 741 731 732 732 734 748 750 747 742 737 746 748 745 746 746 747 747 754 767 768 767 769 773 777 778 782 784 783 785 790 793 794 795 797 798 800 801 802 803 803 804 804 805 805 806 807 807 807 807 807 808 807 807 807 807 807 807 808 808 809 809 809 809 808 808 808 808 809 810 811
756 763 758 753 750 746 747 745 743 739 737 737 739 743 741 741 739 728 729 731 733 747 747 743 742 737 743 747 745 748 751 752 749 755 767 767 766 768 773 780 780 783 785 785 787 789 792 794 796 798 799 801 802 802 803 803 804 804 805 806 806 807 807 807 808 808 808 808 808 807 807 807 807 807 808 808 808 808 808 808 807 807 808 808 809 810
760 760 751 746 744 743 744 743 744 743 743 743 739 742 743 738 735 730 733 735 735 745 746 744 745 740 741 745 748 750 750 751 749 753 760 764 766 768 775 780 781 784 786 787 790 790 793 795 796 799 799 801 802 802 804 803 804 805 805 806 807 808 808 808 808 807 808 808 807 807 807 807 807 807 807 806 806 806 806 806 806 806 807 808 808 809
761 754 744 741 740 742 744 745 746 746 747 747 741 743 742 735 735 738 742 742 738 740 740 743 747 746 748 751 750 749 747 749 752 753 755 760 765 769 775 779 781 785 787 790 793 791 794 796 797 799 800 802 802 803 804 804 805 805 806 807 807 808 808 807 808 807 808 807 807 807 807 807 807 807 806 806 805 804 804 804 804 804 803 804 805 806
750 743 737 738 740 742 746 747 747 749 753 749 741 739 737 732 730 732 742 746 742 742 736 739 753 754 754 759 756 752 752 755 757 758 760 761 762 766 775 778 780 785 787 792 795 793 794 796 797 799 800 801 802 803 804 804 805 805 806 807 807 808 808 808 808 808 808 807 807 807 806 806 806 806 805 804 804 803 803 803 802 802 802 802 802 803
741 734 732 738 740 741 745 746 745 749 754 752 743 736 731 729 727 729 742 750 755 759 741 737 761 763 750 754 758 756 759 761 759 761 765 764 763 767 775 777 779 784 787 789 793 794 795 796 798 800 801 802 802 804 805 805 805 806 806 807 807 807 807 808 807 807 807 807 807 806 806 805 804 804 803 802 802 802 802 801 801 801 801 801 801 801
735 728 730 737 740 741 743 743 742 745 752 752 742 735 729 726 728 731 740 751 762 763 741 736 759 764 753 751 752 754 759 762 761 762 764 764 765 769 774 776 779 785 788 789 791 793 796 798 799 801 802 803 804 805 805 806 806 806 806 806 806 807 807 807 807 807 807 807 807 806 805 805 803 802 802 801 801 801 800 800 800 800 800 800 800 800
731 729 732 735 737 740 743 743 741 741 750 747 733 732 733 727 730 734 740 751 753 749 742 741 748 757 759 753 745 751 760 764 765 767 765 763 766 770 774 777 781 784 788 790 792 795 798 800 801 802 803 804 805 806 806 806 807 806 807 807 806 806 806 806 806 806 806 806 806 806 805 804 803 802 801 801 800 800 799 799 799 799 799 799 799 799
728 732 732 734 738 741 741 739 736 738 746 738 725 731 736 732 730 730 740 749 742 746 754 747 745 759 764 751 745 751 760 766 769 769 768 768 773 778 780 783 786 787 789 791 794 797 799 802 803 804 804 805 806 806 806 806 807 807 807 807 807 806 806 806 806 806 806 806 805 805 804 803 802 801 800 800 799 799 798 797 797 796 796 797 797 797
727 727 725 733 741 739 737 733 730 737 742 729 721 730 736 735 732 731 740 744 742 753 759 747 747 763 762 749 749 757 760 766 769 769 770 772 779 784 785 788 790 791 792 793 797 799 801 803 804 805 805 806 806 806 806 806 807 807 807 807 807 806 806 806 805 806 805 805 804 804 803 802 801 800 799 799 798 797 796 795 795 795 794 794 795 795
721 721 724 730 735 731 730 730 727 732 735 725 724 734 741 740 737 739 739 737 751 763 751 741 743 754 762 756 752 754 754 759 765 769 773 777 783 787 789 790 791 792 794 796 799 801 803 805 805 806 806 806 806 806 806 807 807 807 807 807 807 806 806 806 805 805 805 804 804 803 803 802 801 800 799 798 797 796 795 794 793 793 792 792 792 792
720 727 731 728 727 726 726 729 727 728 729 727 731 738 746 750 747 752 749 746 765 766 742 737 738 747 766 763 749 745 743 751 763 768 774 783 789 792 791 792 793 795 797 799 802 803 805 807 807 807 808 807 807 807 806 807 807 807 807 806 806 806 806 806 805 805 804 804 803 802 802 801 800 799 798 797 795 795 793 792 791 790 789 789 789 789
725 725 728 727 725 723 727 732 730 730 729 729 735 741 752 762 766 772 769 764 771 757 735 735 736 745 759 750 742 747 746 752 761 765 772 783 790 793 794 795 796 798 801 802 804 806 807 808 808 808 808 808 808 808 808 808 808 807 807 806 806 806 806 806 805 804 804 803 802 801 801 800 799 798 797 796 794 793 792 790 789 787 786 786 787 787
734 725 722 728 727 720 726 731 732 736 733 730 734 743 753 762 776 785 775 770 771 754 735 730 734 752 765 754 748 754 757 758 763 766 773 781 788 794 796 798 800 801 804 806 806 807 808 808 809 809 808 809 808 809 809 809 809 808 807 807 807 806 806 806 805 804 803 802 801 801 799 799 798 797 796 794 793 791 790 789 787 786 784 784 784 784
740 738 726 726 725 721 723 719 721 730 732 731 728 734 744 746 761 777 770 767 769 756 741 734 738 757 772 769 759 757 762 766 771 775 779 785 790 795 798 800 803 805 806 807 808 809 810 809 810 810 809 810 809 810 810 809 809 809 808 808 808 807 807 806 805 804 803 802 801 800 799 798 797 796 794 793 791 790 788 786 785 784 783 783 784 783
734 736 719 717 718 719 722 714 712 724 732 732 727 732 739 729 735 754 755 750 752 755 749 744 754 764 768 772 766 763 770 772 779 785 788 793 794 796 801 803 805 808 807 809 810 810 811 810 811 810 810 811 810 810 811 810 810 810 809 809 808 808 807 806 806 804 803 802 801 800 799 797 796 795 794 792 790 788 786 785 784 783 783 783 783 781
734 731 710 714 719 715 721 717 712 723 731 733 734 735 729 715 720 742 753 747 747 759 754 747 769 783 780 782 775 769 777 779 784 792 793 795 796 798 805 806 807 809 809 811 812 811 811 811 811 811 810 811 811 811 811 811 811 810 810 810 809 808 807 807 806 804 803 802 801 800 798 797 796 794 793 791 789 787 785 784 783 782 781 780 780 780
725 727 709 714 725 717 717 721 716 715 721 730 738 730 719 717 720 730 749 757 758 765 754 743 769 788 784 789 784 776 781 784 787 794 795 797 799 802 807 808 809 810 811 812 812 812 812 811 811 811 811 812 812 813 812 812 812 811 810 810 809 809 808 807 806 805 804 802 801 800 798 797 795 793 792 790 788 786 784 782 782 781 780 778 777 778
715 726 717 711 722 718 715 725 727 718 713 718 724 719 722 733 732 731 745 757 762 767 760 751 767 780 775 779 784 780 781 785 789 794 797 799 802 805 808 809 810 811 812 812 812 812 813 812 812 812 812 813 813 813 813 813 812 811 811 811 810 810 808 807 806 805 804 802 801 800 798 797 795 793 791 789 787 786 783 782 781 779 778 777 776 776
711 725 728 714 713 717 719 727 732 724 715 715 716 714 720 726 727 732 736 742 752 762 765 763 765 767 759 759 770 773 773 782 790 793 797 800 802 805 807 808 810 811 812 812 812 813 813 813 813 813 814 814 814 815 814 813 813 812 812 812 811 810 809 807 806 805 803 802 801 800 798 797 795 793 791 789 787 785 783 782 781 779 778 776 775 775
714 724 734 722 713 720 725 724 722 720 719 724 721 717 722 722 720 728 728 726 736 748 759 766 764 759 750 746 755 763 767 778 787 791 795 798 800 803 806 808 810 812 813 813 813 813 813 814 814 815 816 816 815 816 815 814 814 813 813 812 811 810 809 808 806 805 804 802 801 800 798 797 795 793 791 789 787 785 783 782 780 780 779 777 775 774
719 724 733 732 724 724 721 712 710 712 714 722 724 720 723 724 725 737 739 727 724 731 742 753 763 767 757 747 751 761 768 776 783 789 795 798 801 804 807 809 811 813 814 814 815 815 815 815 816 816 816 816 816 816 815 815 814 814 814 813 812 810 809 808 807 805 804 803 801 800 798 797 795 793 791 789 787 785 783 781 779 779 779 777 776 774
714 719 728 733 724 714 710 705 707 709 706 713 722 719 716 718 723 735 744 735 727 728 727 733 758 775 764 751 755 762 767 775 783 790 796 800 804 806 809 811 812 814 815 816 816 816 816 816 816 816 816 816 816 816 816 815 814 814 814 813 812 811 810 809 807 806 805 803 802 800 799 797 795 793 791 788 786 785 783 781 779 779 778 777 776 775
715 722 727 729 721 707 703 703 704 705 706 712 719 714 709 713 717 719 722 723 730 735 729 734 764 782 769 759 763 766 771 781 787 792 797 802 805 807 810 812 813 815 816 817 817 816 816 816 816 816 816 816 816 816 816 815 815 815 815 814 813 811 810 809 808 807 805 804 802 800 799 797 795 793 790 788 787 785 783 781 780 780 778 776 777 776
720 726 723 730 736 728 720 717 713 709 710 712 713 712 708 707 711 716 715 719 733 737 728 740 771 782 771 767 770 772 778 786 790 793 797 802 807 809 811 813 814 816 817 817 817 816 816 816 816 817 817 817 817 817 816 817 817 816 815 815 813 812 811 810 809 808 806 804 803 801 799 797 795 793 791 789 788 786 784 782 782 781 779 778 779 778
716 722 719 729 743 740 734 732 723 716 716 712 708 709 710 705 707 717 722 730 744 740 727 741 770 780 777 776 776 777 781 787 791 796 799 804 808 810 811 813 815 816 817 817 817 818 817 817 818 819 819 819 818 818 818 818 818 817 817 816 814 813 812 811 810 808 806 805 803 801 799 797 795 793 791 790 788 787 785 784 783 782 781 780 780 780
713 717 715 723 730 727 726 723 712 710 718 718 710 707 710 708 704 712 724 732 740 740 732 739 759 775 785 785 782 782 783 787 793 799 803 807 810 811 812 814 815 816 817 817 818 819 819 819 820 820 820 820 820 820 819 819 819 819 818 817 815 814 813 812 811 809 807 806 804 802 800 797 795 794 792 790 789 787 786 785 784 783 782 781 781 780
714 719 721 727 728 722 722 720 709 707 714 717 712 708 707 707 706 714 724 724 726 737 743 744 749 765 777 779 781 786 787 789 795 800 804 808 810 811 813 814 816 817 818 819 820 820 820 821 821 821 821 821 821 821 819 819 820 820 819 818 816 815 814 812 811 810 808 807 805 803 801 799 797 795 793 792 790 789 788 786 785 784 783 782 782 781
715 723 727 730 728 722 723 722 711 705 708 711 711 709 705 705 710 716 719 716 719 734 747 749 747 754 764 774 783 788 788 791 795 798 803 807 809 811 813 814 816 818 819 820 821 821 821 821 821 822 822 822 821 821 820 820 820 820 819 819 817 815 814 813 812 810 809 807 806 804 802 801 799 797 795 793 791 790 789 788 787 786 785 784 783 783
713 725 731 729 729 726 723 722 717 710 708 709 710 710 708 708 711 713 716 719 723 732 742 747 751 757 765 775 783 786 787 791 795 799 803 806 809 810 812 815 817 819 820 821 821 822 822 822 822 823 823 823 822 822 821 821 821 820 820 819 817 816 815 814 812 811 810 809 807 806 804 803 801 799 797 795 794 792 791 790 789 788 787 786 785 784
717 730 736 734 734 733 726 725 726 719 713 715 715 714 713 715 717 717 724 733 738 744 748 750 762 775 776 777 783 787 789 793 798 802 804 805 807 809 812 815 818 819 820 821 823 823 822 823 824 824 824 824 823 822 822 823 822 821 820 819 818 817 816 815 814 813 812 810 809 808 806 805 803 801 800 798 796 794 793 792 791 790 789 787 786 786
721 730 740 738 736 740 735 728 727 724 723 727 730 728 723 724 730 733 737 742 744 753 760 758 768 784 785 782 788 791 792 796 801 804 805 806 808 809 812 815 816 818 820 822 823 823 823 825 825 826 826 825 824 824 824 823 822 821 820 819 819 818 817 816 816 815 814 813 812 810 809 807 806 804 802 800 799 797 795 794 793 792 791 789 788 788
719 724 736 737 737 746 742 728 730 742 746 746 749 748 738 732 738 743 746 747 743 748 759 760 767 782 787 786 791 794 796 800 803 805 807 808 809 810 812 815 816 818 821 822 823 824 825 826 827 827 828 826 826 826 825 824 823 822 821 820 819 819 818 818 817 817 816 815 814 812 811 810 808 807 805 803 802 800 798 797 796 795 794 793 791 790
717 719 728 732 740 751 744 735 745 758 761 760 759 754 744 739 742 747 752 755 752 753 759 764 772 785 789 788 791 796 799 802 805 806 806 807 809 811 813 817 819 820 821 823 824 826 827 828 828 829 829 828 828 828 827 826 824 823 823 821 821 821 820 818 818 819 819 818 816 815 814 813 811 810 808 807 805 803 802 800 799 798 797 796 794 793
719 723 728 731 742 752 746 745 760 764 759 761 760 751 745 744 746 749 753 756 758 763 769 774 782 788 791 793 796 799 803 806 807 809 809 809 811 813 816 820 822 823 825 825 827 828 829 829 830 830 830 830 830 829 829 828 825 824 824 823 824 824 821 820 821 822 822 820 819 818 816 815 814 813 811 810 808 806 805 804 803 801 801 800 799 798
720 729 733 728 737 752 747 744 758 765 760 760 758 751 749 750 748 752 762 765 764 768 774 779 786 792 796 801 804 805 808 811 813 815 815 815 815 816 819 823 825 826 828 829 830 831 831 831 831 832 832 832 832 831 830 829 828 826 825 825 826 824 823 823 824 824 824 823 822 821 819 818 817 815 814 812 811 810 809 807 806 805 804 803 802 802
715 724 727 725 731 740 739 741 756 767 764 761 758 752 749 751 746 747 765 777 772 771 779 785 791 798 803 806 808 810 812 815 821 825 822 819 820 821 824 826 827 829 830 831 833 832 833 833 833 833 834 834 833 833 832 831 830 829 828 828 827 826 825 826 827 827 827 826 825 824 822 821 820 818 817 816 814 813 812 811 810 809 808 807 806 805
712 716 719 726 730 726 731 746 757 761 759 756 753 750 747 750 746 743 760 779 778 775 783 790 794 800 806 808 811 812 809 812 825 832 827 825 825 825 827 829 829 831 832 833 834 834 834 835 835 835 836 835 835 835 834 833 832 831 831 830 829 828 829 829 829 829 829 829 828 827 826 824 823 822 821 819 818 817 816 815 814 813 812 811 810 810
721 725 722 726 730 725 730 742 745 750 756 754 751 752 750 749 748 746 758 775 779 777 782 789 796 801 805 808 810 808 802 809 826 834 828 826 828 827 829 830 831 832 833 833 834 835 836 836 836 837 837 837 837 837 836 835 834 833 833 832 831 832 832 832 832 832 832 832 831 830 829 828 827 825 824 823 822 821 820 819 818 817 816 816 815 815
734 740 732 726 725 724 729 739 746 756 761 755 752 753 751 750 753 754 760 769 774 777 781 787 795 801 803 805 807 806 802 806 821 829 826 826 828 829 830 831 832 833 834 835 836 837 837 838 838 838 839 839 839 839 838 838 837 836 836 835 834 835 835 835 835 835 835 835 834 833 832 831 830 829 828 827 826 824 823 822 821 821 820 820 820 819
735 737 734 730 726 724 729 743 756 762 762 756 753 752 750 753 757 759 761 765 770 774 780 787 794 799 803 804 805 808 807 807 816 824 825 826 828 829 831 832 833 834 835 837 838 838 838 839 839 840 840 840 840 840 840 840 839 839 839 838 837 838 838 838 838 838 838 838 837 836 835 834 833 833 832 831 830 829 827 826 825 824 824 824 824 823
731 727 725 728 728 721 725 743 758 764 765 762 756 753 753 756 760 763 764 766 768 774 782 789 794 798 803 806 807 811 814 815 820 824 825 826 828 829 832 833 834 836 837 838 840 840 840 840 841 841 842 842 842 842 842 842 842 841 842 841 840 841 841 840 840 841 840 840 840 839 838 838 837 836 835 835 834 833 831 830 829 828 827 827 827 827
728 723 717 723 730 723 723 744 761 764 766 765 759 758 759 760 762 766 767 768 773 779 785 792 797 801 805 809 812 815 817 819 822 825 826 828 830 831 833 835 835 838 839 840 841 841 841 842 842 843 843 844 844 844 844 844 844 844 844 844 843 844 844 843 843 843 843 843 843 842 842 841 840 840 839 838 838 836 836 835 834 832 832 831 830 830
730 727 719 729 740 732 729 750 765 765 766 766 762 762 763 763 764 766 769 774 780 785 790 796 802 805 807 810 814 818 821 822 824 827 829 831 832 833 835 836 837 839 840 841 842 843 843 843 844 844 846 846 846 846 846 846 846 846 846 847 847 847 846 846 846 846 846 845 845 845 845 844 844 843 842 842 841 840 839 839 838 837 836 835 834 834
736 736 731 741 754 750 750 767 775 771 770 769 765 765 766 767 768 769 773 779 785 789 793 798 804 807 809 812 816 820 823 825 827 829 831 833 835 836 837 838 840 841 842 843 843 844 845 845 845 846 847 848 848 848 848 848 849 849 848 849 849 849 849 849 849 848 848 848 848 847 847 847 847 846 845 845 844 843 843 842 841 841 840 840 839 838
738 737 734 746 759 761 766 777 778 774 775 774 770 770 770 770 773 774 778 783 786 790 794 798 803 808 811 813 816 820 824 826 827 829 832 835 838 839 839 841 842 842 843 844 845 846 846 846 848 848 849 849 850 850 850 851 850 850 851 851 851 851 851 851 851 851 851 851 850 850 850 850 849 849 848 848 847 846 846 846 845 844 844 843 842 842
738 734 734 744 753 756 768 781 779 776 779 777 774 774 773 774 777 778 781 786 789 793 797 801 805 809 812 815 818 821 825 828 829 831 834 836 839 841 842 843 843 844 845 845 846 847 848 848 849 850 850 851 851 851 852 852 852 852 853 853 853 853 854 853 853 853 853 853 853 853 853 852 852 851 851 850 850 849 849 849 849 848 848 847 846 845
736 735 737 747 755 761 773 784 782 779 781 779 776 777 777 778 780 781 784 789 793 796 800 804 806 809 813 817 819 822 826 830 831 834 836 838 841 843 844 845 846 847 847 847 847 847 848 849 850 851 852 852 853 854 854 854 854 855 855 855 856 856 856 856 855 855 855 855 855 855 855 855 854 854 854 854 853 853 853 853 853 852 852 851 850 849
735 737 742 752 766 775 781 786 785 784 786 785 780 780 780 781 783 786 789 793 796 798 801 804 808 811 813 817 820 822 826 829 832 835 838 840 842 844 845 846 848 849 849 850 850 851 851 852 853 853 854 854 855 856 856 856 856 857 857 857 858 858 858 858 858 857 857 857 857 857 857 856 856 856 856 856 856 856 856 856 856 856 856 856 854 853
740 743 746 751 759 766 772 778 776 775 782 789 786 783 783 784 786 789 793 796 799 801 803 806 811 814 817 820 822 824 827 831 834 837 840 842 844 845 847 848 849 851 852 853 854 854 854 855 855 855 856 857 857 858 858 858 858 858 858 859 859 859 859 859 859 859 859 859 859 859 858 858 857 857 857 857 857 858 858 859 859 858 858 858 857 856
748 749 749 750 750 752 760 768 767 767 778 790 789 786 786 788 789 792 795 797 800 803 806 809 812 816 820 823 825 827 829 832 836 838 840 843 845 847 849 850 851 852 853 854 855 855 856 857 857 857 858 859 859 860 860 860 860 861 861 861 860 860 860 860 860 860 861 861 861 861 860 860 859 859 859 858 858 858 859 859 860 860 859 859 859 858